| time (UTC) | temp F | wind direction | speed knots | gust knots | rain 1hr in | rain 24hr in | rain mn in | humidity % | barometer mb |
| 20260504213059 | 73 | 178 | 2.6 | 8.7 | 0.00 | 0.00 | 0.00 | 46 | 993.2 |
| 20260504211554 | 73 | 171 | 0.9 | 7.0 | 0.00 | 0.00 | 0.00 | 43 | 993.5 |
| 20260504210050 | 73 | 275 | 2.6 | 9.6 | 0.00 | 0.00 | 0.00 | 44 | 993.6 |
| 20260504204551 | 72 | 277 | 3.5 | 7.0 | 0.00 | 0.00 | 0.00 | 44 | 993.9 |
| 20260504203048 | 72 | 300 | 1.7 | 7.8 | 0.00 | 0.00 | 0.00 | 46 | 994.0 |
| 20260504201600 | 72 | 286 | 1.7 | 7.8 | 0.00 | 0.00 | 0.00 | 50 | 994.1 |
| 20260504200046 | 72 | 180 | 2.6 | 9.6 | 0.00 | 0.00 | 0.00 | 51 | 994.3 |
| 20260504194548 | 73 | 286 | 2.6 | 9.6 | 0.00 | 0.00 | 0.00 | 50 | 994.7 |
| 20260504193039 | 74 | 191 | 1.7 | 7.0 | 0.00 | 0.00 | 0.00 | 49 | 995.0 |
| 20260504191542 | 73 | 309 | 0.9 | 7.8 | 0.00 | 0.00 | 0.00 | 51 | 995.4 |
| 20260504190033 | 72 | 161 | 1.7 | 7.0 | 0.00 | 0.00 | 0.00 | 52 | 995.5 |
| 20260504184535 | 72 | 317 | 1.7 | 7.0 | 0.00 | 0.00 | 0.00 | 49 | 995.7 |
| 20260504183028 | 72 | 167 | 3.5 | 7.8 | 0.00 | 0.00 | 0.00 | 49 | 996.0 |
| 20260504181531 | 71 | 246 | 0.9 | 7.0 | 0.00 | 0.00 | 0.00 | 52 | 996.1 |
| 20260504180023 | 70 | 193 | 1.7 | 7.0 | 0.00 | 0.00 | 0.00 | 49 | 996.3 |
| 20260504174519 | 69 | 159 | 1.7 | 9.6 | 0.00 | 0.00 | 0.00 | 50 | 996.5 |
| 20260504173014 | 68 | 184 | 3.5 | 7.8 | 0.00 | 0.00 | 0.00 | 52 | 996.4 |
| 20260504171512 | 67 | 275 | 4.3 | 8.7 | 0.00 | 0.00 | 0.00 | 51 | 996.8 |
| 20260504100115 | 40 | 191 | 0.0 | 1.7 | 0.00 | 0.00 | 0.00 | 86 | 998.1 |
| 20260504090122 | 40 | 191 | 0.0 | 0.0 | 0.00 | 0.00 | 0.00 | 85 | 998.3 |
| 20260504081550 | 41 | 191 | 0.0 | 0.9 | 0.00 | 0.00 | 0.00 | 84 | 998.2 |
| 20260504044530 | 44 | 191 | 0.0 | 0.0 | 0.00 | 0.00 | 0.00 | 74 | 998.4 |
| 20260504043028 | 45 | 191 | 0.0 | 0.0 | 0.00 | 0.00 | 0.00 | 74 | 998.3 |
| 20260504041525 | 45 | 191 | 0.0 | 0.0 | 0.00 | 0.00 | 0.00 | 74 | 998.3 |
| 20260504040024 | 45 | 191 | 0.0 | 0.0 | 0.00 | 0.00 | 0.00 | 73 | 998.2 |
| 20260504034531 | 46 | 191 | 0.0 | 0.0 | 0.00 | 0.00 | 0.00 | 74 | 998.4 |
| 20260504033036 | 46 | 191 | 0.0 | 0.9 | 0.00 | 0.00 | 0.00 | 73 | 998.2 |
| 20260504031528 | 46 | 191 | 0.0 | 0.0 | 0.00 | 0.00 | 0.00 | 73 | 998.3 |
| 20260504030022 | 46 | 192 | 0.9 | 2.6 | 0.00 | 0.00 | 0.00 | 71 | 998.1 |
| 20260504024539 | 47 | 195 | 0.0 | 0.9 | 0.00 | 0.00 | 0.00 | 69 | 998.2 |
| 20260504023021 | 48 | 195 | 0.0 | 0.0 | 0.00 | 0.00 | 0.00 | 68 | 998.2 |
| 20260504021520 | 49 | 195 | 0.0 | 0.9 | 0.00 | 0.00 | 0.00 | 69 | 998.0 |
| 20260504020020 | 49 | 195 | 0.0 | 1.7 | 0.00 | 0.00 | 0.00 | 67 | 998.0 |
| 20260504014520 | 49 | 150 | 1.7 | 3.5 | 0.00 | 0.00 | 0.00 | 63 | 997.9 |
| 20260504013019 | 50 | 152 | 1.7 | 3.5 | 0.00 | 0.00 | 0.00 | 63 | 998.0 |
| 20260504011519 | 51 | 183 | 0.9 | 2.6 | 0.00 | 0.00 | 0.00 | 62 | 998.1 |
| 20260504010018 | 52 | 189 | 0.0 | 1.7 | 0.00 | 0.00 | 0.00 | 59 | 998.0 |
| 20260504004534 | 53 | 189 | 0.9 | 2.6 | 0.00 | 0.00 | 0.00 | 58 | 997.7 |
| 20260504003016 | 56 | 192 | 1.7 | 2.6 | 0.00 | 0.00 | 0.00 | 53 | 997.5 |
| 20260504001517 | 59 | 268 | 0.0 | 0.9 | 0.00 | 0.00 | 0.00 | 46 | 997.3 |
| 20260504000017 | 61 | 268 | 0.0 | 2.6 | 0.00 | 0.00 | 0.00 | 44 | 997.5 |
| 20260503234515 | 61 | 196 | 0.9 | 5.2 | 0.00 | 0.00 | 0.00 | 42 | 997.5 |
| 20260503233013 | 62 | 234 | 0.0 | 3.5 | 0.00 | 0.00 | 0.00 | 41 | 997.6 |
| 20260503231514 | 63 | 309 | 1.7 | 6.1 | 0.00 | 0.00 | 0.00 | 41 | 997.7 |
| 20260503230017 | 63 | 150 | 1.7 | 4.3 | 0.00 | 0.00 | 0.00 | 40 | 997.5 |
| 20260503224511 | 63 | 232 | 0.0 | 7.0 | 0.00 | 0.00 | 0.00 | 40 | 997.8 |
| 20260503223009 | 62 | 284 | 1.7 | 7.0 | 0.00 | 0.00 | 0.00 | 40 | 997.9 |
| 20260503221507 | 61 | 290 | 4.3 | 8.7 | 0.00 | 0.00 | 0.00 | 40 | 998.0 |
| 20260503220008 | 61 | 266 | 1.7 | 6.1 | 0.00 | 0.00 | 0.00 | 42 | 998.0 |
| 20260503214507 | 61 | 297 | 0.0 | 11.3 | 0.00 | 0.00 | 0.00 | 42 | 998.2 |